TimeCDT,TemperatureF,Dew PointF,Humidity,Sea Level PressureIn,VisibilityMPH,Wind Direction,Wind SpeedMPH,Gust SpeedMPH,PrecipitationIn,Events,Conditions,WindDirDegrees,DateUTC
12:53 AM,66.0,62.1,87,30.15,10.0,NE,3.5,-,N/A,,Clear,40,2012-09-13 05:53:00
1:53 AM,64.9,62.1,90,30.15,10.0,NE,3.5,-,N/A,,Scattered Clouds,50,2012-09-13 06:53:00
2:53 AM,66.0,63.0,90,30.15,10.0,ENE,4.6,-,N/A,,Mostly Cloudy,70,2012-09-13 07:53:00
3:53 AM,66.9,63.0,87,30.15,10.0,NE,4.6,-,N/A,,Scattered Clouds,50,2012-09-13 08:53:00
4:53 AM,66.0,63.0,90,30.16,10.0,ENE,4.6,-,N/A,,Partly Cloudy,60,2012-09-13 09:53:00
5:45 AM,66.2,62.6,88,30.17,10.0,NE,4.6,-,N/A,,Scattered Clouds,50,2012-09-13 10:45:00
5:53 AM,66.0,63.0,90,30.16,10.0,NE,4.6,-,N/A,,Scattered Clouds,40,2012-09-13 10:53:00
6:53 AM,64.9,62.1,90,30.18,10.0,ENE,4.6,-,N/A,,Clear,70,2012-09-13 11:53:00
7:53 AM,68.0,63.0,84,30.19,10.0,Calm,Calm,-,N/A,,Clear,0,2012-09-13 12:53:00
8:23 AM,69.8,64.4,83,30.20,10.0,Calm,Calm,-,N/A,,Mostly Cloudy,0,2012-09-13 13:23:00
8:53 AM,73.0,64.9,76,30.19,10.0,SSE,4.6,-,N/A,,Overcast,160,2012-09-13 13:53:00
9:53 AM,75.9,66.0,71,30.20,10.0,South,9.2,-,N/A,,Overcast,180,2012-09-13 14:53:00
10:53 AM,79.0,66.9,66,30.21,10.0,South,10.4,-,N/A,,Overcast,180,2012-09-13 15:53:00
11:53 AM,80.1,66.9,64,30.19,10.0,South,6.9,-,N/A,,Mostly Cloudy,180,2012-09-13 16:53:00
12:04 PM,80.6,68.0,65,30.20,10.0,South,9.2,-,N/A,,Mostly Cloudy,170,2012-09-13 17:04:00
12:45 PM,80.6,68.0,65,30.19,10.0,South,9.2,-,N/A,,Scattered Clouds,180,2012-09-13 17:45:00
12:53 PM,80.1,68.0,67,30.17,10.0,South,9.2,-,N/A,,Scattered Clouds,170,2012-09-13 17:53:00
1:04 PM,80.6,68.0,65,30.18,8.0,SSW,4.6,-,N/A,,Scattered Clouds,200,2012-09-13 18:04:00
1:53 PM,84.0,69.1,61,30.16,10.0,South,4.6,-,N/A,,Partly Cloudy,180,2012-09-13 18:53:00
2:53 PM,86.0,66.9,53,30.14,10.0,WSW,4.6,-,N/A,,Clear,240,2012-09-13 19:53:00
3:53 PM,81.0,66.9,62,30.12,10.0,SSE,16.1,20.7,N/A,,Scattered Clouds,150,2012-09-13 20:53:00
4:53 PM,82.0,64.9,56,30.12,10.0,South,11.5,-,N/A,,Mostly Cloudy,190,2012-09-13 21:53:00
5:53 PM,82.0,63.0,52,30.12,10.0,SE,3.5,-,N/A,,Clear,140,2012-09-13 22:53:00
6:53 PM,78.8,66.2,65,30.13,10.0,East,6.9,-,N/A,,Clear,90,2012-09-13 23:53:00
7:32 PM,75.2,66.2,73,30.14,10.0,ENE,3.5,-,N/A,,Scattered Clouds,70,2012-09-14 00:32:00
7:53 PM,73.9,66.9,79,30.14,10.0,NE,3.5,-,N/A,,Partly Cloudy,40,2012-09-14 00:53:00
8:53 PM,72.0,66.0,81,30.16,10.0,ENE,3.5,-,N/A,,Clear,60,2012-09-14 01:53:00
9:53 PM,71.1,64.9,81,30.17,10.0,NE,3.5,-,N/A,,Clear,50,2012-09-14 02:53:00
10:53 PM,71.1,64.9,81,30.18,10.0,NE,4.6,-,N/A,,Scattered Clouds,50,2012-09-14 03:53:00
11:53 PM,71.1,64.9,81,30.18,10.0,East,3.5,-,N/A,,Scattered Clouds,80,2012-09-14 04:53:00